Weather History for Ft Pierce, FL

Change the Weather History Date:

Sunday, November 18, 2012

  Actual Average Record
Temperature  
Mean Temperature 69 °F -  
Max Temperature 75 °F 81 °F 90 °F (1973)
Min Temperature 61 °F 61 °F 41 °F (1951)
Cooling Degree Days 4    
Growing Degree Days 19 (Base 50)    
Moisture  
Dew Point 62 °F    
Average Humidity 82    
Maximum Humidity 100    
Minimum Humidity 66    
Precipitation  
Precipitation 0.00 in - - ()
Sea Level Pressure  
Sea Level Pressure 30.11 in    
Wind  
Wind Speed 7 mph (NNW)    
Max Wind Speed 16 mph    
Max Gust Speed 25 mph    
Visibility 9 miles    
Events      
Averages and records for this station are not official NWS values.
T = Trace of Precipitation, MM = Missing Value Source: NWS Daily Summary

Daily Weather History Graph

Daily Weather History Graph

Search for Another Location

Airport:

Trip Planner

Search our weather history database for the weather conditions in past years. The results will help you decide how hot, cold, wet, or windy it might be!

Date:

Astronomy

Nov. 18, 2012 Rise Set
Actual Time 6:44 AM EST 5:28 PM EST
Civil Twilight 6:20 AM EST 5:53 PM EST
Nautical Twilight 5:51 AM EST 6:21 PM EST
Astronomical Twilight 5:23 AM EST 6:49 PM EST
Moon 11:15 AM EST (11/18) 10:38 PM EST (11/18)
Length of Visible Light 11h 33m
Length of Day
10h 43m
Waxing Crescent, 30% of the Moon is Illuminated
Nov 18
Waxing Crescent
Nov 20
First Quarter
Nov 28
Full
Dec 6
Last Quarter
Dec 13
New

Hourly Weather History & Observations

Time (EST) Temp. Dew Point Humidity Pressure Visibility Wind Dir Wind Speed Gust Speed Precip Events Conditions
12:53 AM 72.0 °F 63.0 °F 73% 30.07 in 10.0 mi NE 4.6 mph - N/A   Scattered Clouds
1:53 AM 71.6 °F 62.6 °F 73% 30.07 in 10.0 mi NNE 4.6 mph - N/A   Clear
2:53 AM 64.9 °F 61.0 °F 87% 30.07 in 10.0 mi WNW 5.8 mph - N/A   Clear
3:53 AM 64.0 °F 62.1 °F 93% 30.06 in 10.0 mi NW 3.5 mph - N/A   Clear
4:53 AM 64.0 °F 62.1 °F 93% 30.06 in 9.0 mi NW 6.9 mph - N/A   Clear
5:53 AM 64.0 °F 63.0 °F 96% 30.09 in 8.0 mi NW 4.6 mph - N/A   Mostly Cloudy
6:12 AM 64.4 °F 62.6 °F 94% 30.09 in 7.0 mi NNW 6.9 mph - N/A   Mostly Cloudy
6:53 AM 64.9 °F 64.0 °F 97% 30.10 in 6.0 mi NNW 5.8 mph - N/A   Overcast
7:04 AM 64.4 °F 64.4 °F 100% 30.10 in 6.0 mi NW 5.8 mph - N/A   Overcast
7:53 AM 69.1 °F 64.9 °F 87% 30.11 in 7.0 mi North 9.2 mph 18.4 mph N/A   Overcast
8:53 AM 71.1 °F 64.9 °F 81% 30.13 in 8.0 mi NNW 6.9 mph 19.6 mph N/A   Overcast
9:40 AM 71.6 °F 64.4 °F 78% 30.13 in 9.0 mi NNW 10.4 mph 17.3 mph N/A   Overcast
9:53 AM 73.0 °F 64.0 °F 73% 30.13 in 10.0 mi North 16.1 mph 24.2 mph N/A   Mostly Cloudy
10:53 AM 73.9 °F 64.0 °F 71% 30.13 in 10.0 mi North 16.1 mph 25.3 mph N/A   Scattered Clouds
11:53 AM 75.9 °F 64.9 °F 69% 30.12 in 10.0 mi North 15.0 mph 24.2 mph N/A   Scattered Clouds
12:00 PM 73.4 °F 64.4 °F 73% 30.12 in 10.0 mi North 8.1 mph 24.2 mph N/A   Overcast
12:53 PM 75.0 °F 63.0 °F 66% 30.11 in 10.0 mi North 11.5 mph 21.9 mph N/A   Mostly Cloudy
1:53 PM 73.9 °F 62.1 °F 66% 30.09 in 10.0 mi North 15.0 mph 23.0 mph N/A   Mostly Cloudy
2:53 PM 73.9 °F 62.1 °F 66% 30.08 in 10.0 mi North 11.5 mph 19.6 mph N/A   Scattered Clouds
3:53 PM 73.0 °F 62.1 °F 68% 30.09 in 10.0 mi North 12.7 mph 19.6 mph N/A   Partly Cloudy
4:53 PM 71.1 °F 62.1 °F 73% 30.10 in 10.0 mi North 10.4 mph 21.9 mph N/A   Partly Cloudy
5:53 PM 68.0 °F 62.1 °F 81% 30.10 in 10.0 mi North 8.1 mph - N/A   Partly Cloudy
6:20 PM 66.2 °F 62.6 °F 88% 30.12 in 10.0 mi North 5.8 mph - N/A   Mostly Cloudy
6:35 PM 66.2 °F 62.6 °F 88% 30.12 in 10.0 mi North 9.2 mph 16.1 mph N/A   Overcast
6:53 PM 66.9 °F 62.1 °F 84% 30.13 in 10.0 mi North 9.2 mph 16.1 mph N/A   Overcast
7:00 PM 66.2 °F 62.6 °F 88% 30.13 in 10.0 mi North 9.2 mph 17.3 mph N/A   Mostly Cloudy
7:53 PM 66.0 °F 61.0 °F 84% 30.14 in 10.0 mi North 8.1 mph 17.3 mph N/A   Overcast
8:43 PM 64.4 °F 60.8 °F 88% 30.15 in 10.0 mi NNW 8.1 mph - N/A   Scattered Clouds
8:53 PM 64.9 °F 60.1 °F 84% 30.16 in 10.0 mi North 6.9 mph - N/A   Partly Cloudy
9:53 PM 64.9 °F 57.9 °F 78% 30.16 in 10.0 mi North 5.8 mph - N/A   Clear
10:53 PM 63.0 °F 57.0 °F 81% 30.15 in 10.0 mi North 4.6 mph - N/A   Clear
11:53 PM 61.0 °F 57.0 °F 87% 30.14 in 10.0 mi Calm Calm - N/A   Scattered Clouds